GW2076 Weather Reports


time (UTC)temp
F
wind
direction
speed
knots
gust
knots
rain 1hr
in
rain 24hr
in
rain mn
in
humidity
%
barometer
mb
20260508032410 51 68 6.1 13.0 0.00 0.02 0.00 99 997.1
20260508031900 51 0 3.5 13.0 0.00 0.02 0.00 99 997.0
20260508031349 51 23 7.0 13.0 0.00 0.02 0.00 99 997.3
20260508030330 51 68 5.2 13.9 0.00 0.02 0.00 99 997.5
20260508024801 51 68 7.0 13.0 0.01 0.02 0.59 99 997.6
20260508024249 52 338 6.1 12.2 0.01 0.02 0.59 99 997.7
20260508023739 52 23 6.1 12.2 0.01 0.02 0.59 99 997.7
20260508022720 53 68 4.3 13.9 0.01 0.02 0.59 99 997.3
20260508022206 53 338 7.0 13.0 0.01 0.02 0.59 99 997.4
20260508021656 53 0 3.5 13.0 0.01 0.02 0.59 99 997.6
20260508020636 53 45 3.5 15.6 0.01 0.02 0.59 99 997.6
20260508020126 53 45 4.3 15.6 0.01 0.02 0.59 99 997.5
20260508015615 53 315 6.1 12.2 0.01 0.02 0.59 99 997.6
20260508015105 53 293 7.0 12.2 0.00 0.01 0.58 99 997.6
20260508014556 53 0 2.6 9.6 0.00 0.01 0.58 99 997.7
20260508014044 53 315 4.3 9.6 0.00 0.01 0.58 99 998.0
20260508013534 53 90 3.5 7.0 0.00 0.01 0.58 99 998.0
20260508013024 53 45 2.6 7.8 0.00 0.01 0.58 99 998.2
20260508012519 54 0 2.6 7.8 0.00 0.01 0.58 99 998.4
20260508012006 54 45 2.6 7.8 0.00 0.01 0.58 99 998.4
20260508011456 54 45 1.7 7.8 0.00 0.01 0.58 99 998.2
20260508010944 54 23 2.6 7.8 0.00 0.01 0.58 99 998.5
20260508010433 54 0 1.7 7.8 0.00 0.01 0.58 99 998.5
20260508005923 54 45 1.7 7.8 0.00 0.01 0.58 99 998.6
20260508005414 54 68 0.9 7.8 0.00 0.01 0.58 99 998.6
20260508004409 54 338 1.7 6.1 0.00 0.01 0.58 98 998.7
20260508003843 54 45 0.9 6.1 0.00 0.01 0.58 98 998.9
20260508003333 54 338 0.0 5.2 0.01 0.01 0.58 98 999.0
20260508001803 54 23 2.6 9.6 0.01 0.01 0.58 98 998.8
20260508001252 54 45 3.5 9.6 0.01 0.01 0.58 98 998.9
20260508000234 54 23 2.6 7.8 0.01 0.01 0.58 98 998.8
20260507235723 55 338 2.6 9.6 0.01 0.01 0.58 98 998.9
20260507234704 55 0 2.6 9.6 0.01 0.01 0.58 98 998.8
20260507234151 55 45 2.6 6.1 0.01 0.01 0.58 97 998.7
20260507233642 56 23 1.7 3.5 0.01 0.01 0.58 98 998.6
20260507233132 55 23 0.9 1.7 0.00 0.00 0.57 97 998.7
20260507232622 55 23 0.0 0.0 0.00 0.00 0.57 97 998.7
20260507232116 55 0 0.0 0.0 0.00 0.00 0.57 97 998.6
20260507231605 55 23 0.0 0.0 0.00 0.00 0.57 97 998.8
20260507231054 55 23 0.0 3.5 0.00 0.00 0.57 97 998.8
20260507230549 55 45 0.0 3.5 0.00 0.00 0.57 97 998.2
20260507230035 55 0 0.0 1.7 0.00 0.00 0.57 97 998.5
20260507225525 55 338 0.0 0.0 0.00 0.00 0.57 97 998.5
20260507225014 55 338 0.0 0.0 0.00 0.00 0.57 97 998.6
20260507224504 55 45 0.0 3.5 0.00 0.00 0.57 97 998.6
20260507223953 55 23 0.0 3.5 0.00 0.00 0.57 97 998.2
20260507223445 55 0 0.0 3.5 0.00 0.00 0.57 97 998.1
20260507222428 55 23 0.0 5.2 0.00 0.00 0.57 96 998.1
20260507221915 55 338 1.7 5.2 0.00 0.00 0.57 96 998.0
20260507221405 55 23 1.7 5.2 0.00 0.00 0.57 96 997.9
20260507220853 55 338 1.7 5.2 0.00 0.00 0.57 96 998.0
20260507220343 55 338 0.0 3.5 0.00 0.00 0.57 96 998.1
20260507215833 56 338 0.0 5.2 0.00 0.00 0.57 96 998.2
20260507215323 56 23 2.6 5.2 0.00 0.00 0.57 96 998.0
20260507214302 56 0 0.9 3.5 0.00 0.00 0.57 96 998.5
20260507213242 56 338 2.6 5.2 0.00 0.00 0.57 95 997.5
20260507212733 56 0 0.0 3.5 0.00 0.00 0.57 95 997.4
20260507212222 56 0 0.0 3.5 0.00 0.00 0.57 95 997.3
20260507211713 56 0 0.0 5.2 0.00 0.00 0.57 95 997.0
20260507211202 56 23 1.7 7.8 0.00 0.00 0.57 95 996.7
20260507210652 56 0 3.5 7.8 0.00 0.00 0.57 94 996.7
20260507210142 56 0 2.6 5.2 0.00 0.00 0.57 94 996.7
20260507205631 57 23 3.5 6.1 0.00 0.00 0.57 94 997.2
20260507205127 57 0 3.5 6.1 0.00 0.00 0.57 94 997.4
20260507204613 57 23 1.7 6.1 0.00 0.00 0.57 93 997.7
20260507203551 57 0 2.6 6.1 0.00 0.00 0.57 93 998.2
20260507203041 58 338 3.5 6.1 0.00 0.00 0.57 93 998.7
20260507202531 58 0 1.7 5.2 0.00 0.00 0.57 92 998.6
20260507202021 58 270 0.0 5.2 0.00 0.00 0.57 92 999.0
20260507201517 58 0 1.7 5.2 0.00 0.00 0.57 91 998.9
20260507201001 58 0 0.9 5.2 0.00 0.00 0.57 90 999.0
20260507200451 59 338 1.7 7.0 0.00 0.00 0.57 89 999.1
20260507195941 59 23 1.7 7.0 0.00 0.00 0.57 89 999.3
20260507195431 59 0 1.7 7.0 0.00 0.00 0.57 88 999.3
20260507194921 60 45 3.5 7.0 0.00 0.00 0.57 89 999.6
20260507194410 60 45 2.6 6.1 0.00 0.00 0.57 90 999.6
20260507193351 60 338 3.5 7.8 0.00 0.00 0.57 90 999.6
20260507192840 60 338 2.6 7.8 0.00 0.00 0.57 90 999.5
20260507192334 60 0 1.7 7.8 0.00 0.00 0.57 90 999.5
20260507191313 59 338 3.5 7.0 0.00 0.00 0.57 93 999.7
20260507190800 59 68 3.5 5.2 0.00 0.00 0.57 94 999.6
20260507190249 58 338 1.7 5.2 0.00 0.00 0.57 95 999.6
20260507185740 59 315 1.7 5.2 0.00 0.00 0.57 95 999.6
20260507185229 59 0 1.7 3.5 0.00 0.00 0.57 95 999.7
20260507184719 58 23 0.9 6.1 0.00 0.00 0.57 95 999.6
20260507184209 59 23 2.6 6.1 0.00 0.00 0.57 93 999.6
20260507183659 61 0 3.5 9.6 0.00 0.00 0.57 90 999.7
20260507183148 61 315 3.5 9.6 0.00 0.00 0.57 89 999.5
20260507182639 60 0 0.9 6.1 0.00 0.00 0.57 90 999.6
20260507182125 60 45 0.9 6.1 0.00 0.00 0.57 90 999.3
20260507181615 60 0 3.5 6.1 0.00 0.00 0.57 90 999.3
20260507181104 61 23 1.7 6.1 0.00 0.00 0.57 90 999.0
20260507180558 61 45 1.7 6.1 0.00 0.00 0.57 91 998.9
20260507180048 61 338 1.7 6.1 0.00 0.00 0.57 91 999.0
20260507175538 61 338 2.6 6.1 0.00 0.00 0.57 90 999.2
20260507175032 61 0 2.6 6.1 0.00 0.00 0.57 89 999.5
20260507174519 61 23 2.6 6.1 0.00 0.00 0.57 91 999.5
20260507174009 61 23 1.7 6.1 0.00 0.00 0.57 92 999.4
20260507173458 60 315 3.5 6.1 0.00 0.00 0.57 91 999.4
20260507172946 60 338 0.9 7.0 0.00 0.00 0.57 91 999.2
20260507172436 61 0 2.6 7.0 0.00 0.00 0.57 89 999.1
20260507171926 61 338 2.6 5.2 0.00 0.00 0.57 88 999.0
20260507171417 62 45 1.7 7.0 0.00 0.00 0.57 88 998.8
20260507170907 61 338 2.6 7.0 0.00 0.00 0.57 90 998.5
20260507170357 60 0 2.6 5.2 0.00 0.00 0.57 92 998.6
20260507165846 60 338 1.7 5.2 0.00 0.00 0.57 93 998.6
20260507165336 59 315 0.0 7.0 0.00 0.00 0.57 93 998.7
20260507164826 59 338 1.7 7.0 0.00 0.00 0.57 93 999.1
20260507164316 59 0 3.5 6.1 0.00 0.00 0.57 96 998.8
20260507163805 59 338 3.5 3.5 0.00 0.00 0.57 97 998.8
20260507145027 57 23 1.7 6.1 0.00 0.13 0.57 99 998.5
20260507144517 57 338 0.9 11.3 0.00 0.13 0.57 99 998.6
20260507144003 57 293 6.1 11.3 0.00 0.13 0.57 99 998.6
20260507143459 57 338 3.5 9.6 0.00 0.13 0.57 99 998.4
20260507142941 58 315 4.3 9.6 0.00 0.13 0.57 99 998.1
20260507142431 58 23 1.7 7.0 0.00 0.13 0.57 99 998.6
20260507141407 57 338 2.6 9.6 0.00 0.13 0.57 99 999.1
20260507140858 57 0 3.5 9.6 0.00 0.13 0.57 99 999.0
20260507140358 57 315 2.6 6.1 0.00 0.13 0.57 99 999.5
20260507135327 57 90 0.0 6.1 0.00 0.13 0.57 99 1000.5
20260507134817 57 315 0.0 6.1 0.00 0.13 0.57 99 999.6
20260507134308 57 23 1.7 6.1 0.00 0.13 0.57 99 999.6
20260507133757 57 338 1.7 6.1 0.00 0.13 0.57 99 999.2
20260507133301 57 0 3.5 5.2 0.00 0.13 0.57 99 999.0
20260507132238 57 315 0.0 9.6 0.00 0.13 0.57 99 999.7
20260507131725 57 338 2.6 9.6 0.00 0.13 0.57 99 999.6
20260507131215 57 0 2.6 7.8 0.00 0.13 0.57 99 998.8
20260507130702 58 0 1.7 7.8 0.00 0.13 0.57 99 999.1
20260507130152 58 338 2.6 7.8 0.01 0.13 0.57 99 999.4
20260507125638 57 45 1.7 7.0 0.01 0.13 0.57 99 999.4
20260507125126 57 338 2.6 6.1 0.01 0.13 0.57 99 999.5
20260507124615 57 0 0.9 7.0 0.01 0.13 0.57 99 999.0
20260507123045 57 23 3.5 7.0 0.01 0.13 0.57 99 998.6
20260507122027 57 0 3.5 9.6 0.01 0.13 0.57 99 999.2
20260507121522 57 23 3.5 9.6 0.01 0.13 0.57 99 999.3
20260507121009 57 338 1.7 7.8 0.02 0.13 0.57 99 999.5
20260507120000 58 0 0.9 7.0 0.01 0.12 0.56 99 999.6
20260507115447 58 23 1.7 7.0 0.01 0.12 0.56 99 999.6
20260507114937 57 23 2.6 7.8 0.01 0.12 0.56 99 999.2
20260507113909 57 0 3.5 11.3 0.01 0.12 0.56 99 998.5
20260507113400 57 23 3.5 9.6 0.01 0.12 0.56 99 998.7
20260507112846 57 315 3.5 9.6 0.01 0.12 0.56 99 998.6
20260507112336 58 23 5.2 13.0 0.01 0.12 0.56 99 998.5
20260507111825 58 23 7.0 13.0 0.02 0.12 0.56 99 998.6
20260507111314 58 338 3.5 9.6 0.01 0.11 0.54 99 998.5
20260507110803 58 23 4.3 9.6 0.01 0.11 0.54 99 998.6
20260507110253 58 0 3.5 9.6 0.01 0.11 0.54 99 998.7
20260507105743 58 0 3.5 7.8 0.02 0.11 0.54 99 998.2
20260507105233 57 338 1.7 7.0 0.02 0.11 0.54 99 998.1
20260507104724 57 0 3.5 7.8 0.02 0.11 0.54 99 998.1
20260507104213 57 0 5.2 9.6 0.02 0.11 0.54 99 998.6
20260507103703 57 45 3.5 9.6 0.04 0.11 0.54 99 998.4
20260507103153 57 338 3.5 9.6 0.04 0.11 0.54 99 997.9
20260507102657 57 338 3.5 9.6 0.05 0.11 0.54 99 997.9
20260507102143 57 0 2.6 7.8 0.05 0.11 0.54 99 998.2
20260507101121 57 23 2.6 11.3 0.05 0.09 0.53 99 998.9
20260507100608 57 0 3.5 11.3 0.06 0.09 0.53 99 998.9
20260507100059 57 0 5.2 9.6 0.06 0.09 0.53 99 998.9
20260507095544 57 23 1.7 9.6 0.06 0.08 0.52 99 999.3
20260507095034 57 68 2.6 9.6 0.07 0.08 0.52 99 999.4
20260507094518 57 45 1.7 9.6 0.08 0.08 0.52 99 999.4
20260507093501 57 293 5.2 12.2 0.07 0.07 0.51 99 998.9
20260507092951 57 45 3.5 12.2 0.07 0.07 0.51 99 999.3
20260507092442 57 23 5.2 12.2 0.06 0.06 0.50 99 999.3
20260507091931 57 23 4.3 12.2 0.06 0.06 0.50 99 999.7
20260507090400 57 315 1.7 7.8 0.04 0.04 0.47 99 1000.0
20260507084842 57 0 2.6 5.2 0.01 0.01 0.45 99 1000.2
20260507084328 57 0 0.9 6.1 0.00 0.00 0.44 99 1000.3
20260507083819 57 23 0.0 6.1 0.00 0.00 0.44 99 1000.2
20260507083306 57 45 0.0 5.2 0.00 0.00 0.44 99 1000.1
20260507082756 57 23 1.7 9.6 0.00 0.00 0.44 99 1000.0
20260507082242 57 45 1.7 9.6 0.00 0.00 0.44 99 999.8
20260507081733 57 338 2.6 7.0 0.00 0.00 0.44 99 999.9
20260507081219 57 0 2.6 6.1 0.00 0.00 0.44 99 999.8
20260507080159 57 23 0.9 5.2 0.00 0.00 0.44 99 999.4
20260507075649 57 0 1.7 5.2 0.00 0.00 0.44 99 999.1
20260507075139 57 315 0.0 3.5 0.00 0.00 0.44 99 998.7
20260507074119 57 68 0.0 0.0 0.00 0.00 0.44 99 998.6
20260507072549 57 315 0.0 0.0 0.17 0.66 0.41 99 998.2
20260507072036 57 338 0.0 0.0 0.17 0.65 0.40 99 998.6
20260507071524 57 0 0.0 1.7 0.15 0.63 0.39 99 998.2
20260507065951 57 338 1.7 3.5 0.14 0.59 0.34 99 999.0
20260507065441 57 0 0.0 0.0 0.13 0.57 0.32 99 998.8
20260507064931 57 45 0.0 0.0 0.13 0.56 0.31 99 999.0
20260507064421 57 0 0.0 0.0 0.13 0.54 0.30 99 999.1
20260507063911 57 338 0.0 0.0 0.13 0.53 0.28 99 999.4
20260507063401 58 315 0.0 0.0 0.12 0.52 0.27 99 999.4
20260507062850 58 23 0.0 0.0 0.11 0.51 0.26 99 999.5
20260507061831 58 338 0.0 0.0 0.11 0.48 0.24 99 999.2
20260507061333 58 315 0.0 0.0 0.11 0.47 0.22 99 999.2
20260507060820 58 338 0.0 0.0 0.11 0.46 0.21 99 999.1
20260507060310 58 338 0.0 0.0 0.11 0.46 0.21 99 999.0
20260507055245 58 315 0.0 0.0 0.11 0.44 0.19 99 998.5
20260507054735 58 315 0.0 0.0 0.08 0.41 0.18 99 998.7
20260507054222 58 338 0.0 0.0 0.08 0.41 0.17 99 998.6
20260507053712 58 315 0.0 0.0 0.07 0.40 0.15 99 998.4
20260507053159 58 338 0.0 3.5 0.08 0.40 0.15 99 998.4
20260507052649 58 0 0.0 3.5 0.08 0.39 0.14 99 998.7
20260507052138 58 68 0.9 7.0 0.07 0.38 0.13 99 998.6
20260507051118 58 338 1.7 3.5 0.07 0.37 0.12 99 998.9
20260507050608 58 23 0.0 0.0 0.07 0.35 0.11 99 999.0
20260507045547 58 0 0.0 5.2 0.07 0.34 0.09 99 999.2
20260507045037 58 45 0.0 5.2 0.06 0.33 0.08 99 999.4
20260507044032 58 45 0.9 6.1 0.06 0.33 0.08 99 998.2
20260507043519 58 315 0.0 6.1 0.05 0.32 0.07 99 998.2
20260507043006 58 45 1.7 3.5 0.06 0.32 0.07 99 998.4
20260507042458 59 45 0.0 1.7 0.05 0.31 0.06 99 998.8
20260507041942 59 23 0.0 1.7 0.05 0.31 0.06 99 998.4
20260507041433 59 23 0.0 0.0 0.05 0.30 0.05 99 998.4
20260507040920 59 338 0.0 0.0 0.05 0.30 0.05 99 998.2
20260507040406 59 23 0.0 3.5 0.04 0.28 0.04 99 998.8
20260507035347 59 23 0.0 3.5 0.04 0.27 0.02 99 998.9
20260507034837 59 23 0.0 3.5 0.04 0.27 0.02 99 998.5
20260507034327 59 338 0.0 3.5 0.04 0.27 0.02 99 998.0